User: anonymous   Login
Location: Mococo
(38.0255°N, 122.1161°W)
Time: 05:44:48
(UTC+00:00)
Language:

Cosmos 1400 Rocket - Orbit

View from above orbital plane
View from above orbital plane
View from above satellite
View from above satellite

Ground track
Ground track

The orbit is defined by the following mean orbital elements,

1 13403U          26106.91869106 +.00000000 +00000-0 +12108-3 0 00004
2 13403  81.1452 147.9268 0024890  39.5780 320.7265 15.25251638    09
Epoch (UTC): 16 April 2026 22:02:54
Eccentricity: 0.0024890
inclination: 81.1452°
perigee height: 473 km
apogee height: 507 km
right ascension of ascending node: 147.9268°
argument of perigee: 39.5780°
revolutions per day: 15.25251638
mean anomaly at epoch: 320.7265°

The dashed part of the orbit path shows where the satellite is in the earth's shadow,  

DLR